This is the latest recevied weather packets stored in our database for station/object IK6IHU-3. If no packets are shown the sender has not sent any weather packets the latest 1 day(s).
| Time | Temp. | Humidity | Pressure | Rain* | Wind** | Luminosity | Snow |
|---|---|---|---|---|---|---|---|
| 1778045845 | 15.56° C | 68% | 1012.1 hPa | 0 mm | - | 0 W/m² | - |
| 1778045785 | 15.56° C | 68% | 1011.9 hPa | 0 mm | - | 0 W/m² | - |
| 1778045725 | 15.56° C | 68% | 1012.1 hPa | 0 mm | - | 0 W/m² | - |
| 1778045665 | 15.56° C | 69% | 1011.9 hPa | 0 mm | - | 0 W/m² | - |
| 1778045605 | 15° C | 69% | 1011.9 hPa | 0 mm | - | 0 W/m² | - |
| 1778045425 | 15° C | 71% | 1012 hPa | 0 mm | - | 0 W/m² | - |
| 1778045305 | 15.56° C | 72% | 1012 hPa | 0 mm | - | 0 W/m² | - |
| 1778045185 | 16.67° C | 70% | 1011.9 hPa | 0 mm | - | 0 W/m² | - |
| 1778045064 | 16.11° C | 68% | 1011.9 hPa | 0 mm | - | 0 W/m² | - |
| 1778045005 | 16.11° C | 67% | 1011.8 hPa | 0 mm | - | 0 W/m² | - |
| 1778044945 | 16.11° C | 66% | 1012 hPa | 0 mm | - | 0 W/m² | - |
| 1778044765 | 16.11° C | 66% | 1011.9 hPa | 0 mm | - | 0 W/m² | - |
| 1778044705 | 16.11° C | 67% | 1011.7 hPa | 0 mm | - | 0 W/m² | - |
| 1778044645 | 16.11° C | 67% | 1012 hPa | 0 mm | - | 0 W/m² | - |
| 1778044285 | 15.56° C | 67% | 1011.7 hPa | 0 mm | - | 0 W/m² | - |
| 1778044225 | 15.56° C | 67% | 1011.9 hPa | 0 mm | - | 0 W/m² | - |
| 1778044165 | 15.56° C | 68% | 1011.7 hPa | 0 mm | - | 0 W/m² | - |
| 1778044104 | 15.56° C | 68% | 1011.8 hPa | 0 mm | - | 0 W/m² | - |
| 1778044045 | 15.56° C | 68% | 1011.8 hPa | 0 mm | - | 0 W/m² | - |
| 1778043985 | 15° C | 69% | 1012 hPa | 0 mm | - | 0 W/m² | - |
| 1778043925 | 15° C | 69% | 1011.7 hPa | 0 mm | - | 0 W/m² | - |
| 1778043865 | 15° C | 69% | 1011.8 hPa | 0 mm | - | 0 W/m² | - |
| 1778043745 | 15° C | 69% | 1011.8 hPa | 0 mm | - | 0 W/m² | - |
| 1778043625 | 15° C | 69% | 1011.8 hPa | 0 mm | - | 0 W/m² | - |
| 1778043565 | 15° C | 69% | 1011.8 hPa | 0 mm | - | 0 W/m² | - |
* Rain latest hour (hover to see other rain measurements)
** Current wind speed in m/s (hover to see current wind gust speed)